CDT,Max TemperatureF,Mean TemperatureF,Min TemperatureF,Max Dew PointF,MeanDew PointF,Min DewpointF,Max Humidity, Mean Humidity, Min Humidity, Max Sea Level PressureIn, Mean Sea Level PressureIn, Min Sea Level PressureIn, Max VisibilityMiles, Mean VisibilityMiles, Min VisibilityMiles, Max Wind SpeedMPH, Mean Wind SpeedMPH, Max Gust SpeedMPH,PrecipitationIn, CloudCover, Events, WindDirDegrees
2013-6-1,60,55,50,55,52,47,93,79,64,30.05,29.78,29.60,10,8,2,33,18,40,0.13,8,Rain,308
2013-6-2,68,59,50,47,44,41,83,62,40,30.14,30.08,30.01,10,10,10,17,5,21,T,4,,8
2013-6-3,76,61,45,51,46,43,93,65,36,30.04,29.94,29.82,10,10,10,28,13,33,0.00,0,,133
2013-6-4,70,63,55,61,57,51,93,80,67,30.02,29.94,29.87,10,10,2,20,8,23,0.01,6,Rain,100
2013-6-5,69,63,56,57,50,46,100,73,45,30.06,30.02,29.97,10,8,1,20,10,26,T,4,,318
2013-6-6,70,62,54,54,51,48,86,69,52,30.03,29.99,29.96,10,10,10,17,9,22,0.00,6,,354
2013-6-7,74,60,45,52,48,44,100,69,38,30.06,29.98,29.87,10,10,6,15,4,20,0.00,2,,104
2013-6-8,62,59,55,61,55,47,100,82,64,29.87,29.74,29.62,10,8,2,26,13,32,0.95,7,Rain-Thunderstorm,139
2013-6-9,67,63,59,61,58,57,93,83,73,29.84,29.70,29.62,10,8,2,23,14,31,0.22,8,Rain,291
2013-6-10,77,66,54,64,58,54,100,78,56,29.90,29.85,29.78,10,6,0,15,6,18,0.00,4,Fog,116
2013-6-11,87,76,64,71,66,61,87,71,55,29.82,29.75,29.67,10,10,10,24,11,31,0.00,0,,108
2013-6-12,82,70,58,70,64,52,84,69,53,30.04,29.78,29.60,10,10,10,31,14,38,T,3,Rain-Thunderstorm,4
2013-6-13,79,67,55,59,54,51,86,63,39,30.12,30.06,29.97,10,10,10,14,5,16,0.01,1,Rain-Thunderstorm,345
2013-6-14,81,71,61,68,62,56,90,74,57,30.02,29.87,29.71,10,10,2,33,16,43,0.28,2,Rain-Thunderstorm,144
2013-6-15,81,73,64,68,64,62,93,76,58,29.96,29.89,29.83,10,10,5,29,6,39,0.09,3,Rain-Thunderstorm,4
2013-6-16,85,72,59,63,57,48,100,66,31,29.99,29.96,29.90,10,9,2,15,4,18,T,0,,346
2013-6-17,87,72,56,59,56,51,93,62,31,30.01,29.98,29.95,10,10,10,18,7,23,0.00,0,,329
2013-6-18,85,72,58,59,54,52,86,55,24,30.05,30.00,29.94,10,10,10,13,3,18,0.00,1,,333
2013-6-19,89,75,60,64,60,54,84,59,35,29.99,29.93,29.86,10,10,10,23,12,33,0.00,1,,143
2013-6-20,92,81,69,71,67,63,84,63,44,29.90,29.84,29.76,10,10,10,28,15,36,0.00,2,,153
2013-6-21,94,87,79,73,70,68,74,60,38,29.82,29.77,29.72,10,10,10,28,15,35,0.00,0,,165
2013-6-22,84,75,65,69,64,61,84,66,47,30.01,29.86,29.70,10,9,4,33,11,47,0.52,4,Rain-Thunderstorm,35
2013-6-23,83,74,64,68,64,61,93,72,51,29.89,29.82,29.68,10,10,7,28,8,36,0.14,2,Rain-Thunderstorm,234
2013-6-24,83,75,67,71,68,62,100,81,62,29.89,29.81,29.72,10,10,6,35,10,46,0.03,3,Rain-Thunderstorm,153
2013-6-25,86,77,67,73,66,57,94,77,60,29.77,29.69,29.61,10,9,3,33,9,46,0.64,3,Rain-Thunderstorm,166
2013-6-26,91,81,70,73,67,58,100,67,34,29.85,29.75,29.65,10,8,0,20,8,25,0.00,0,Fog,320
2013-6-27,88,78,67,69,65,59,90,65,39,29.99,29.92,29.86,10,10,8,14,7,,0.11,3,Rain,303
2013-6-28,87,77,66,64,58,51,81,57,32,29.98,29.93,29.88,10,10,10,31,14,38,0.00,1,,320
2013-6-29,82,73,64,58,55,53,73,56,39,29.97,29.91,29.88,10,10,10,30,14,38,0.00,1,,345
2013-6-30,79,68,56,55,51,47,86,59,32,30.13,30.07,29.98,10,10,8,15,6,23,0.00,0,,16